This is the latest recevied weather packets stored in our database for station/object WB0VGI-1. If no packets are shown the sender has not sent any weather packets the latest 10 day(s).
| Time | Temp. | Humidity | Pressure | Rain* | Wind** | Luminosity | Snow |
|---|---|---|---|---|---|---|---|
| 1777972026 | 2.78° C | 75% | 1011.8 hPa | 0 mm | - | - | - |
| 1777970826 | 2.78° C | 75% | 1011.5 hPa | 0 mm | - | - | - |
| 1777969626 | 2.78° C | 75% | 1011.2 hPa | 0 mm | - | - | - |
| 1777968426 | 3.33° C | 73% | 1011.1 hPa | 0 mm | - | - | - |
| 1777967226 | 3.33° C | 72% | 1011 hPa | 0 mm | - | - | - |
| 1777966026 | 3.89° C | 71% | 1011 hPa | 0 mm | - | - | - |
| 1777964826 | 4.44° C | 70% | 1010.7 hPa | 0 mm | - | - | - |
| 1777963626 | 4.44° C | 68% | 1010.7 hPa | 0 mm | - | - | - |
| 1777962426 | 5° C | 66% | 1010.5 hPa | 0 mm | - | - | - |
| 1777961226 | 5° C | 65% | 1010.5 hPa | 0 mm | - | - | - |
| 1777960026 | 5° C | 65% | 1010.3 hPa | 0 mm | - | - | - |
| 1777958826 | 5° C | 65% | 1010.1 hPa | 0 mm | - | - | - |
| 1777957626 | 5° C | 65% | 1010.1 hPa | 0 mm | - | - | - |
| 1777956426 | 5.56° C | 63% | 1010 hPa | 0 mm | - | - | - |
| 1777955226 | 6.11° C | 61% | 1009.8 hPa | 0 mm | - | - | - |
| 1777954026 | 6.67° C | 58% | 1009.8 hPa | 0 mm | - | - | - |
| 1777952826 | 6.67° C | 56% | 1009.6 hPa | 0 mm | - | - | - |
| 1777951626 | 7.22° C | 55% | 1009.6 hPa | 0 mm | - | - | - |
| 1777950426 | 7.22° C | 55% | 1009.5 hPa | 0 mm | - | - | - |
| 1777949226 | 6.67° C | 55% | 1009.4 hPa | 0 mm | - | - | - |
| 1777948026 | 7.22° C | 55% | 1009.1 hPa | 0 mm | - | - | - |
| 1777946826 | 7.22° C | 53% | 1008.8 hPa | 0 mm | - | - | - |
| 1777945626 | 7.78° C | 52% | 1008.6 hPa | 0 mm | - | - | - |
| 1777944426 | 8.33° C | 51% | 1008.2 hPa | 0 mm | - | - | - |
| 1777943226 | 8.89° C | 50% | 1008 hPa | 0 mm | - | - | - |
* Rain latest hour (hover to see other rain measurements)
** Current wind speed in m/s (hover to see current wind gust speed)